[[[{"header":{"parameterUnit":"kt","parameterCategory":2,"dx":1,"dy":1,"la1":30.253999710083008,"la2":30.299108505249023,"lo1":-89.0895004272461,"lo2":-89.04439544677734,"nx":28,"ny":28,"refTime":"2022-11-01T21:00:00:Z","depth":0,"parameterNumber":1,"parameterNumberName":"U-component_of_WINDS"},"data":[1.8166,1.8208,1.8178,1.8214,1.8193,1.8212,1.8209,1.8203,1.8191,1.8212,1.8219,1.8195,1.8172,1.8174,1.8181,1.817,1.8173,1.8211,1.8191,1.8051,1.803,1.8009,1.7995,1.8213,1.8213,1.8337,1.8338,1.8339,1.8069,1.8049,1.8059,1.8048,1.8056,1.8003,1.799,1.8001,1.802,1.8006,1.801,1.8027,1.8036,1.7999,1.8004,1.8024,1.7998,1.8027,1.8022,1.8019,1.787,1.7855,1.8048,1.8048,1.8048,1.8047,1.8047,1.8047,1.7883,1.791,1.7884,1.7894,1.7881,1.7874,1.7895,1.7862,1.7872,1.7871,1.7834,1.7856,1.7836,1.7826,1.7815,1.7832,1.7794,1.7815,1.782,1.7825,1.7834,1.7655,1.7832,1.7831,1.783,1.783,1.7829,0,1.7736,1.7709,1.7715,1.7713,1.7719,1.7714,1.7705,1.7718,1.7649,1.766,1.7674,1.7677,1.7684,1.7693,1.769,1.7674,1.7617,1.7609,1.7623,1.7638,1.7653,1.7642,1.7397,1.7603,1.7601,1.7599,1.7598,1.7597,1.7543,1.7578,1.7536,1.7545,1.7531,1.7547,1.755,1.7486,1.7493,1.7473,1.7501,1.751,1.7512,1.7541,1.7502,1.7508,1.7479,1.756,1.7479,1.7494,1.7476,1.7472,1.7475,1.7576,1.7578,1.7581,1.7583,0,1.7436,1.7384,1.7428,1.7382,1.7372,1.7413,1.7374,1.7399,1.7364,1.7393,1.7397,1.7341,1.7356,1.7303,1.7311,1.7282,1.735,1.7325,1.7356,1.7346,1.7412,1.7405,1.7637,1.7663,1.7441,1.7443,1.7445,0,1.7248,1.7297,1.7215,1.7244,1.7297,1.7229,1.7284,1.7258,1.7237,1.7259,1.7186,1.7209,1.7137,1.7154,1.7112,1.7158,1.7161,1.714,1.7128,1.7144,1.7146,1.7143,1.7131,1.7103,1.7101,1.71,1.7099,0,1.7082,1.7097,1.7143,1.7138,1.7093,1.7117,1.71,1.7075,1.7078,1.7075,1.7077,1.7079,1.7079,1.7083,1.7028,1.6975,1.7085,1.7,1.7064,1.7065,1.7087,1.7085,1.7308,1.7098,1.7098,1.7097,1.7097,0,1.692,1.6916,1.6992,1.6951,1.6957,1.6989,1.6984,1.6998,1.6978,1.6952,1.695,1.6892,1.693,1.6849,1.6899,1.6844,1.6849,1.6834,1.6837,1.6833,1.6743,1.6871,1.7093,1.7111,1.6836,1.6834,1.6832,0,1.6744,1.6805,1.6745,1.682,1.684,1.6752,1.6787,1.677,1.6738,1.6751,1.6717,1.6734,1.6662,1.6659,1.6692,1.6656,1.6728,1.6646,1.6665,1.6667,1.6669,1.6873,1.6916,1.7051,1.6803,1.6806,1.6809,0,1.6599,1.654,1.6558,1.6546,1.6511,1.6528,1.6569,1.6568,1.658,1.657,1.6601,1.6625,1.657,1.6567,1.652,1.6556,1.6678,1.6493,1.6491,1.6525,1.6785,1.6826,1.6849,1.6638,1.6642,1.6645,1.6786,0,1.6359,1.6382,1.6428,1.6407,1.6412,1.6455,1.6393,1.6406,1.6359,1.6323,1.6369,1.6341,1.6341,1.6353,1.6308,1.6409,1.6383,1.6325,1.6238,1.6374,1.6419,1.6438,1.6177,1.6174,1.6171,1.6169,0,0,1.6201,1.6232,1.6163,1.6197,1.6195,1.6101,1.6153,1.6141,1.612,1.6122,1.6074,1.6102,1.6081,1.6142,1.618,1.6182,1.6193,1.6148,1.6311,1.6327,1.6342,1.6391,1.6411,1.6165,1.6164,1.6163,1.6163,0,1.6098,1.6077,1.6128,1.6112,1.6085,1.6043,1.6057,1.6013,1.5992,1.6036,1.5957,1.5978,1.6002,1.5989,1.5986,1.614,1.6078,1.6146,1.6248,1.6289,1.6308,1.6325,1.6377,1.6398,1.6157,1.6157,1.6157,0,1.5941,1.5908,1.5926,1.5918,1.59,1.5923,1.5818,1.5848,1.5864,1.5759,1.5803,1.5779,1.5757,1.5824,1.5852,1.5809,1.5977,1.5914,1.5927,1.5928,1.5964,1.5988,1.6009,1.5734,1.5733,1.5732,0,0,1.5861,1.5882,1.5825,1.5891,1.5885,1.5823,1.5829,1.5781,1.5761,1.5754,1.572,1.5705,1.5717,1.5728,1.5737,1.582,1.5809,1.5864,1.5884,1.59,1.591,1.5951,1.5974,1.5727,1.5727,1.5727,0,0,1.5822,1.5757,1.5711,1.5781,1.5764,1.5712,1.5756,1.5699,1.57,1.5687,1.5608,1.5601,1.5663,1.5642,1.5587,1.5704,1.5621,1.5632,1.5715,1.5739,1.5758,1.576,1.5473,0,0,0,0,0,1.5683,1.5765,1.5724,1.5726,1.5715,1.5735,1.5733,1.5669,1.561,1.5646,1.5609,1.5542,1.5596,1.5545,1.5549,1.561,1.5667,1.5678,1.5688,1.5813,1.5839,1.5861,0,0,0,0,0,0,1.5683,1.5685,1.5722,1.5674,1.5671,1.5732,1.5618,1.5602,1.5604,1.5591,1.5552,1.5541,1.5487,1.5539,1.5544,1.5602,1.5471,1.5672,1.5681,1.5689,1.5822,1.5844,1.5862,0,0,0,0,0,1.5683,1.5685,1.5683,1.5673,1.567,1.5604,1.5614,1.56,1.5601,1.5542,1.5529,1.5552,1.5491,1.549,1.5541,1.5602,1.5468,1.547,1.5677,1.5685,1.5691,1.5833,0,0,0,0,0,0,1.5683,1.5673,1.5681,1.5678,1.5636,1.5599,1.5591,1.5599,1.555,1.5539,1.5538,1.5528,1.5494,1.5493,1.5493,1.5605,1.5465,1.5467,1.5468,1.5683,1.5688,1.5693,0,0,0,0,0,0,1.5671,1.5671,1.5679,1.5636,1.5627,1.5595,1.5588,1.5622,1.5551,1.5549,1.5539,1.5534,1.5495,1.5496,1.5495,1.5552,1.5463,1.5465,1.5466,1.5467,1.5687,1.5692,0,0,0,0,0,0,1.567,1.5669,1.5637,1.563,1.5622,1.5581,1.5624,1.5617,1.5513,1.5552,1.5502,1.5497,1.55,1.5498,1.5497,1.5554,1.5552,1.5463,1.5464,1.5465,1.5466,0,0,0,0,0,0,0,1.5669,1.5687,1.57,1.5625,1.5618,1.5648,1.5648,1.5647,1.5512,1.5508,1.5503,1.5499,1.5452,1.5454,1.5456,1.5557,0,0,1.5463,1.5464,0,0,0,0,0,0,0,0,1.5685,1.5686,1.57,1.5699,1.5699,1.5648,1.5648,1.5647,1.5511,1.5508,1.5504,1.5501,1.5453,1.5454,1.5456,0,0,0,0,0,0,0,0,0,0,0,0,0,0,0,1.57,1.5699,0,1.5648,1.5648,1.5647,1.5511,1.5508,1.5505,1.5502,1.5453,1.5454,1.5456,0,0,0,0,0,0,0,0,0,0,0,0,0,0,0,0,0,0,0,0,0,0,0,0,0,0,0,0,0,0,0,0,0,0,0,0,0,0,0,0,0,0,0,0,0,0,0,0,0,0,0,0,0,0,0,0,0,0,0,0,0,0,0,0,0,0,0,0,0]}],[{"header":{"parameterUnit":"kt","parameterCategory":2,"dx":1,"dy":1,"la1":30.253999710083008,"la2":30.299108505249023,"lo1":-89.0895004272461,"lo2":-89.04439544677734,"nx":28,"ny":28,"refTime":"2022-11-01T21:00:00:Z","depth":0,"parameterNumber":2,"parameterNumberName":"V-component_of_WINDS"},"data":[-2.3569,-2.3672,-2.3749,-2.3904,-2.4,-2.412,-2.4188,-2.4285,-2.4383,-2.4538,-2.4642,-2.4733,-2.4863,-2.5009,-2.5128,-2.5167,-2.5213,-2.5194,-2.5243,-2.5252,-2.5259,-2.5265,-2.5245,-2.5202,-2.5202,-2.5223,-2.5223,-2.5223,-2.3575,-2.3669,-2.3772,-2.3925,-2.4015,-2.408,-2.4208,-2.428,-2.4387,-2.4507,-2.4613,-2.4757,-2.4882,-2.5022,-2.5157,-2.5211,-2.5251,-2.5242,-2.524,-2.5261,-2.5273,-2.5251,-2.5209,-2.5209,-2.5209,-2.5209,-2.5209,-2.5209,-2.3605,-2.3664,-2.38,-2.3914,-2.4011,-2.4114,-2.4184,-2.4292,-2.4396,-2.4542,-2.4615,-2.4739,-2.4876,-2.5076,-2.5163,-2.5264,-2.5288,-2.5304,-2.5309,-2.5311,-2.5304,-2.5269,-2.5291,-2.5291,-2.5291,-2.5292,-2.5292,0,-2.3652,-2.3712,-2.3815,-2.3942,-2.403,-2.4136,-2.4247,-2.4293,-2.4448,-2.4528,-2.465,-2.4735,-2.4902,-2.5029,-2.5172,-2.5261,-2.5338,-2.5354,-2.5366,-2.5333,-2.5286,-2.5315,-2.5334,-2.5353,-2.5354,-2.5354,-2.5355,-2.5355,-2.3691,-2.3749,-2.3928,-2.399,-2.4069,-2.4169,-2.4244,-2.4377,-2.4451,-2.4609,-2.4656,-2.4783,-2.4891,-2.5077,-2.5206,-2.5333,-2.5372,-2.5371,-2.5391,-2.5358,-2.5376,-2.5371,-2.538,-2.5364,-2.5363,-2.5362,-2.5361,0,-2.3706,-2.383,-2.3945,-2.4117,-2.4162,-2.4217,-2.4366,-2.4431,-2.4529,-2.4633,-2.4665,-2.4819,-2.4938,-2.5068,-2.523,-2.5294,-2.5395,-2.5428,-2.5349,-2.5364,-2.5378,-2.5375,-2.5397,-2.5408,-2.5451,-2.5451,-2.545,0,-2.3789,-2.3859,-2.4041,-2.4101,-2.4185,-2.4316,-2.4397,-2.4488,-2.4606,-2.4689,-2.4796,-2.4871,-2.5025,-2.5121,-2.5215,-2.532,-2.535,-2.5406,-2.5431,-2.5398,-2.5391,-2.5441,-2.5443,-2.5481,-2.5481,-2.548,-2.548,0,-2.38,-2.3979,-2.4077,-2.4138,-2.4328,-2.4372,-2.4453,-2.4585,-2.4658,-2.4774,-2.4823,-2.4948,-2.5017,-2.5115,-2.5235,-2.5244,-2.5365,-2.5402,-2.5423,-2.542,-2.5443,-2.544,-2.5426,-2.548,-2.548,-2.548,-2.548,0,-2.3886,-2.3997,-2.4118,-2.428,-2.4322,-2.4386,-2.4517,-2.4601,-2.4733,-2.4796,-2.4888,-2.4975,-2.5074,-2.5103,-2.5243,-2.5222,-2.5285,-2.5348,-2.5351,-2.5369,-2.5398,-2.5374,-2.5346,-2.5349,-2.5385,-2.5385,-2.5384,0,-2.3868,-2.4022,-2.4134,-2.4246,-2.4336,-2.445,-2.4524,-2.4636,-2.4726,-2.4818,-2.4919,-2.5022,-2.507,-2.512,-2.5173,-2.5282,-2.531,-2.5282,-2.5417,-2.5421,-2.538,-2.5355,-2.5319,-2.5338,-2.5375,-2.5376,-2.5377,0,-2.3868,-2.4095,-2.4107,-2.4183,-2.4349,-2.4424,-2.4508,-2.4638,-2.4692,-2.4805,-2.4882,-2.5028,-2.5073,-2.5153,-2.5236,-2.5284,-2.5295,-2.5324,-2.533,-2.5317,-2.5381,-2.5347,-2.5349,-2.5341,-2.5342,-2.5343,-2.537,0,-2.3974,-2.4066,-2.4102,-2.4262,-2.4339,-2.4415,-2.4549,-2.4613,-2.4685,-2.4778,-2.4891,-2.5016,-2.5149,-2.5184,-2.5254,-2.532,-2.533,-2.5374,-2.5412,-2.5394,-2.5406,-2.5411,-2.5383,-2.5385,-2.5387,-2.5388,0,0,-2.3926,-2.406,-2.4178,-2.4263,-2.4336,-2.4451,-2.4521,-2.4606,-2.4773,-2.4822,-2.4844,-2.5067,-2.5167,-2.5291,-2.5296,-2.5348,-2.5374,-2.5374,-2.5401,-2.5402,-2.5403,-2.5414,-2.5417,-2.5391,-2.5391,-2.5392,-2.5392,0,-2.3992,-2.4087,-2.4153,-2.4245,-2.4386,-2.448,-2.4496,-2.4656,-2.4718,-2.4828,-2.4923,-2.5007,-2.5179,-2.5275,-2.5345,-2.5362,-2.543,-2.5392,-2.5357,-2.5412,-2.5411,-2.541,-2.542,-2.5421,-2.5396,-2.5396,-2.5396,0,-2.4018,-2.4134,-2.4179,-2.4347,-2.444,-2.4528,-2.46,-2.4688,-2.4756,-2.4878,-2.4985,-2.5072,-2.5209,-2.5307,-2.5356,-2.5377,-2.5474,-2.5466,-2.5459,-2.5468,-2.5528,-2.5526,-2.5524,-2.5545,-2.5545,-2.5545,0,0,-2.4057,-2.4141,-2.4307,-2.4371,-2.4423,-2.4562,-2.4622,-2.4699,-2.4817,-2.4864,-2.4977,-2.5091,-2.5194,-2.5258,-2.5361,-2.5449,-2.549,-2.5478,-2.5472,-2.5465,-2.547,-2.5528,-2.5526,-2.5545,-2.5545,-2.5545,0,0,-2.4076,-2.427,-2.432,-2.441,-2.4518,-2.4687,-2.4722,-2.4788,-2.4893,-2.4899,-2.5035,-2.5072,-2.5165,-2.5246,-2.5229,-2.5378,-2.5412,-2.5419,-2.5321,-2.5314,-2.5307,-2.5286,-2.5321,0,0,0,0,0,-2.4211,-2.4246,-2.4289,-2.4324,-2.4536,-2.4662,-2.469,-2.4802,-2.4825,-2.4851,-2.4956,-2.5023,-2.5266,-2.5254,-2.5287,-2.5305,-2.5544,-2.5544,-2.5544,-2.5439,-2.543,-2.5423,0,0,0,0,0,0,-2.4225,-2.4267,-2.4289,-2.4456,-2.4505,-2.4662,-2.4726,-2.4757,-2.4825,-2.4836,-2.5001,-2.5029,-2.5127,-2.5245,-2.5273,-2.5288,-2.5312,-2.5544,-2.5544,-2.5544,-2.5436,-2.5429,-2.5422,0,0,0,0,0,-2.4237,-2.4271,-2.458,-2.4457,-2.4499,-2.4656,-2.4725,-2.4752,-2.4807,-2.4969,-2.4998,-2.4885,-2.5125,-2.5157,-2.5262,-2.5272,-2.5293,-2.5303,-2.5544,-2.5544,-2.5544,-2.5432,0,0,0,0,0,0,-2.4247,-2.4298,-2.4591,-2.4609,-2.4451,-2.465,-2.4684,-2.4747,-2.4937,-2.4967,-2.4859,-2.4865,-2.5123,-2.5148,-2.5172,-2.526,-2.5278,-2.5288,-2.5294,-2.5544,-2.5544,-2.5544,0,0,0,0,0,0,-2.4281,-2.4311,-2.46,-2.4587,-2.4603,-2.4643,-2.4674,-2.4779,-2.4938,-2.4817,-2.4829,-2.4859,-2.5088,-2.5143,-2.5162,-2.5322,-2.5266,-2.5276,-2.5283,-2.5287,-2.5544,-2.5544,0,0,0,0,0,0,-2.4296,-2.4322,-2.4583,-2.4596,-2.461,-2.4812,-2.4739,-2.495,-2.4924,-2.4807,-2.4925,-2.4925,-2.508,-2.5102,-2.5154,-2.5305,-2.5317,-2.5266,-2.5273,-2.5278,-2.5281,0,0,0,0,0,0,0,-2.4308,-2.4102,-2.4489,-2.4603,-2.4616,-2.4767,-2.4772,-2.4777,-2.4924,-2.4924,-2.4925,-2.4925,-2.5209,-2.522,-2.5231,-2.5291,0,0,-2.5265,-2.527,0,0,0,0,0,0,0,0,-2.4093,-2.41,-2.449,-2.4493,-2.4497,-2.4768,-2.4772,-2.4776,-2.4924,-2.4924,-2.4925,-2.4925,-2.5212,-2.5221,-2.523,0,0,0,0,0,0,0,0,0,0,0,0,0,0,0,-2.449,-2.4493,0,-2.4769,-2.4772,-2.4775,-2.4924,-2.4924,-2.4924,-2.4925,-2.5214,-2.5222,-2.5229,0,0,0,0,0,0,0,0,0,0,0,0,0,0,0,0,0,0,0,0,0,0,0,0,0,0,0,0,0,0,0,0,0,0,0,0,0,0,0,0,0,0,0,0,0,0,0,0,0,0,0,0,0,0,0,0,0,0,0,0,0,0,0,0,0,0,0,0,0]}]]]